Overview Statistics Trail Chart Weather Telemetry Raw packets
 

This is the latest recevied weather packets stored in our database for station/object N5CSU. If no packets are shown the sender has not sent any weather packets the latest 10 day(s).

<< 32 33 34 35 36 37 38 >>
Time Temp. Humidity Pressure Rain* Wind** Luminosity Snow
1788399701 24.44° C 98% 1012.5 hPa 0 mm - 0 W/m² -
1788399396 24.44° C 98% 1012.6 hPa 0 mm - 0 W/m² -
1788399091 24.44° C 98% 1012.5 hPa 0 mm - 0 W/m² -
1788398790 25° C 98% 1012.2 hPa 0 mm - 0 W/m² -
1788398489 25.56° C 98% 1012.3 hPa 0 mm - 0 W/m² -
1788398188 25.56° C 98% 1012.2 hPa 0 mm - 0 W/m² -
1788397883 25.56° C 98% 1012.2 hPa 0 mm - 0 W/m² -
1788397579 25.56° C 98% 1012 hPa 0 mm - 0 W/m² -
1788397277 25.56° C 98% 1012 hPa 0 mm - 0 W/m² -
1788396972 26.11° C 98% 1012 hPa 0 mm - 0 W/m² -
1788396667 26.67° C 98% 1012.1 hPa 0 mm - 0 W/m² -
1788396362 27.22° C 98% 1012.2 hPa 0 mm - 1 W/m² -
1788396057 27.22° C 98% 1011.9 hPa 0 mm - 1 W/m² -
1788395752 27.78° C 98% 1012.1 hPa 0 mm - 1 W/m² -
1788395447 27.78° C 98% 1011.8 hPa 0 mm - 2 W/m² -
1788395143 27.78° C 98% 1012 hPa 0 mm - 2 W/m² -
1788394837 27.78° C 98% 1012 hPa 0 mm - 3 W/m² -
1788394531 27.78° C 98% 1011.8 hPa 0 mm - 3 W/m² -
1788394225 27.78° C 98% 1011.8 hPa 0 mm - 4 W/m² -
1788393921 27.78° C 98% 1011.7 hPa 0 mm - 5 W/m² -
1788393620 27.22° C 98% 1012.1 hPa 0 mm - 7 W/m² -
1788393314 27.22° C 97% 1011.9 hPa 0 mm - 7 W/m² -
1788393009 27.22° C 97% 1011.8 hPa 0 mm - 6 W/m² -
1788392703 26.67° C 97% 1011.8 hPa 0 mm - 5 W/m² -
1788392402 26.67° C 97% 1011.8 hPa 0 mm - 5 W/m² -

* Rain latest hour (hover to see other rain measurements)
** Current wind speed in m/s (hover to see current wind gust speed)